Погода в Валдгейме

Россия / Еврейская автономная область     48°41′36″N   132°58′24″E
темп.,
°C
ветер,
м/с
пор.,
м/с
влажн.,
%
обл.,
%
осадки,
мм/ч
давл.,
гПа
погр.,
м
22 октября, пт
пт2201:00+1зсз247092 0.0 101782
04:000зсз35803 0.0 101773
07:00−1зсз34814 0.0 101781
10:00+4сз34592 0.0 1018265
13:00+8сз364252 0.0 10181745
16:00+9ссв35336 0.0 10171959
19:00+4зсз11490 0.0 101815
22:00+2зсз335922 0.0 101937
23 октября, сб
сб2301:00+1з33635 0.0 101840
04:00+1з34720 0.0 101768
07:000зсз35760 0.0 101773
10:00+5з34595 0.0 1018210
13:00+11зсз35435 0.0 1017662
16:00+13з58410 0.0 10161018
19:00+9з511500 0.0 1017255
22:00+7зсз46580 0.0 1017116
24 октября, вс
вс2401:00+4з35683 0.0 101784
04:00+3з34750 0.0 101755
07:00+2з33780 0.0 101849
10:00+6з24620 0.0 1019201
13:00+12з23430 0.0 1018587
16:00+14з34370 0.0 10181093
19:00+9зюз34500 0.0 101948
22:00+7з22570 0.0 102020
25 октября, пн
пн2501:00+5з22600 0.0 101911
04:00+4з22660 0.0 101910
07:00+3з12685 0.0 101910
10:00+7зюз23545 0.0 1019204
13:00+11юз46425 0.0 1018726
16:00+13юз564267 0.0 10161276
19:00+9ююз3457100 0.0 101656
22:00+7юз226598 0.0 101626
26 октября, вт
вт2601:00+6з11705 0.0 101610
04:00+5зюз11765 0.0 101510
07:00+4сз01812 0.0 101510
10:00+6в0069100 0.0 1015151
13:00+8юв1267100 0.0 1013339
16:00+11св0259100 0.0 1012399
19:00+7св3477100 0.3 101173
22:00+7с2283100 0.3 100927